Location: Stara Lesna
(49.1528°N, 20.2911°E)
Time: 19:01:54
(UTC+02:00)

Cosmos 1331 Rocket - Pass Details

Date: 13 July 2020
Orbit: 749 x 778 km, 74.0° (Epoch: 10 August)

Event Time Altitude Azimuth Distance (km) Brightness Sun altitude
Rises 00:08:08 0° 335° (NNW) 3,273 8.7 -18.6°
Reaches altitude 10° 00:10:32 10° 334° (NNW) 2,341 7.6 -18.6°
Maximum altitude 00:15:51 76° 250° (WSW) 806 4.0 -18.8°
Enters shadow 00:18:03 36° 172° (S) 1,216 4.5 -18.8°
